Weather History for Bedford, MA

Change the Weather History Date:

Thursday, April 3, 2014

  Actual Average Record
Temperature  
Mean Temperature 40 °F -  
Max Temperature 55 °F 54 °F 74 °F (1974)
Min Temperature 26 °F 32 °F 24 °F (1969)
Degree Days  
Heating Degree Days 24    
Moisture  
Dew Point 26 °F    
Average Humidity 64    
Maximum Humidity 100    
Minimum Humidity 28    
Precipitation  
Precipitation 0.00 in - - ()
Sea Level Pressure  
Sea Level Pressure 30.11 in    
Wind  
Wind Speed 4 mph (NNW)    
Max Wind Speed 14 mph    
Max Gust Speed 18 mph    
Visibility 10 miles    
Events      
Averages and records for this station are not official NWS values.
T = Trace of Precipitation, MM = Missing Value Source: NWS Daily Summary

Daily Weather History Graph

Daily Weather History Graph

Search for Another Location

Airport:

Trip Planner

Search our weather history database for the weather conditions in past years. The results will help you decide how hot, cold, wet, or windy it might be!

Date:

Astronomy

Apr. 03, 2014 Rise Set
Actual Time 6:24 AM EDT 7:13 PM EDT
Civil Twilight 5:55 AM EDT 7:41 PM EDT
Nautical Twilight 5:21 AM EDT 8:15 PM EDT
Astronomical Twilight 4:46 AM EDT 8:51 PM EDT
Moon 8:46 AM EDT (4/3) 11:34 PM EDT (4/3)
Length of Visible Light 13h 46m
Length of Day
12h 49m
Waxing Crescent, 17% of the Moon is Illuminated
Apr 3
Waxing Crescent
Apr 7
First Quarter
Apr 15
Full
Apr 22
Last Quarter
Apr 29
New

Hourly Weather History & Observations

Time (EDT) Temp. Windchill Dew Point Humidity Pressure Visibility Wind Dir Wind Speed Gust Speed Precip Events Conditions
12:56 AM 28.9 °F - 28.0 °F 96% 30.09 in 10.0 mi Calm Calm - N/A   Clear
1:56 AM 28.9 °F - 28.9 °F 100% 30.08 in 10.0 mi Calm Calm - N/A   Clear
2:56 AM 28.0 °F - 28.0 °F 100% 30.08 in 10.0 mi Calm Calm - N/A   Clear
3:56 AM 27.0 °F - 27.0 °F 100% 30.09 in 10.0 mi Calm Calm - N/A   Clear
4:56 AM 27.0 °F - 27.0 °F 100% 30.09 in 10.0 mi Calm Calm - N/A   Clear
5:56 AM 26.1 °F 21.9 °F 26.1 °F 100% 30.10 in 10.0 mi WSW 3.5 mph - N/A   Clear
6:56 AM 26.1 °F - 24.1 °F 92% 30.12 in 10.0 mi Calm Calm - N/A   Clear
7:56 AM 35.1 °F - 32.0 °F 89% 30.14 in 10.0 mi Calm Calm - N/A   Clear
8:56 AM 44.1 °F 38.6 °F 24.1 °F 45% 30.14 in 10.0 mi NW 10.4 mph - N/A   Clear
9:56 AM 46.0 °F 41.0 °F 21.9 °F 39% 30.13 in 10.0 mi NW 10.4 mph - N/A   Clear
10:56 AM 48.9 °F - 23.0 °F 36% 30.13 in 10.0 mi North 9.2 mph 18.4 mph N/A   Clear
11:56 AM 51.1 °F - 21.9 °F 32% 30.12 in 10.0 mi North 8.1 mph - N/A   Clear
12:56 PM 53.1 °F - 24.1 °F 32% 30.10 in 10.0 mi NNW 11.5 mph 18.4 mph N/A   Clear
1:56 PM 53.1 °F - 23.0 °F 31% 30.09 in 10.0 mi WNW 13.8 mph - N/A   Clear
2:56 PM 55.0 °F - 21.9 °F 28% 30.09 in 10.0 mi NNW 12.7 mph - N/A   Clear
3:56 PM 55.0 °F - 21.9 °F 28% 30.07 in 10.0 mi WNW 9.2 mph - N/A   Clear
4:56 PM 54.0 °F - 21.9 °F 29% 30.08 in 10.0 mi West 6.9 mph - N/A   Clear
5:56 PM 50.0 °F - 27.0 °F 41% 30.09 in 10.0 mi East 12.7 mph - N/A   Scattered Clouds
6:56 PM 45.0 °F 40.6 °F 27.0 °F 49% 30.11 in 10.0 mi ESE 8.1 mph - N/A   Clear
7:56 PM 39.9 °F 34.5 °F 27.0 °F 60% 30.13 in 10.0 mi ESE 8.1 mph - N/A   Clear
8:56 PM 37.0 °F 33.3 °F 28.0 °F 70% 30.14 in 10.0 mi ENE 4.6 mph - N/A   Clear
9:56 PM 34.0 °F - 28.0 °F 79% 30.15 in 10.0 mi Calm Calm - N/A   Clear
11:56 PM 33.8 °F - 30.2 °F 87% 30.14 in 10.0 mi Calm Calm - N/A   Clear